#timestamp,LO_Frequency,Hit,StdDev 
1575975615.3,286046998.5,N
1575975635.2,286046999.0,N
1575975655.0,286046999.5,N
1575975655.9,286046999.5,N
1575975675.7,286046998.9,N
1575975695.6,286046996.7,N
1575975715.4,286046997.2,N
1575975735.3,286046994.9,Y
1575975755.1,286046997.0,P
1575975756.0,286046997.0,N
1575975775.8,286046998.9,N
1575975795.7,286046996.7,Y
1575975815.5,286047000.8,P
1575975835.4,286046999.8,N
1575975855.2,286047001.1,N
1575975875.0,286047000.5,N
1575975875.9,286047000.5,N
1575975895.8,286047000.4,N
1575975915.6,286047000.4,N
1575975935.5,286047002.8,Y
1575975955.3,286047003.7,P
1575975975.1,286047005.8,P
1575975995.9,286047005.6,N
1575976015.7,286047005.8,N
1575976035.5,286047006.4,N
1575976055.4,286047006.1,N
1575976075.2,286047006.1,N
1575976095.1,286047006.9,Y
1575976096.0,286047006.9,P
1575976115.8,286047001.8,N
1575976135.6,286047004.2,N
1575976155.5,286047005.8,Y
1575976175.3,286047002.2,P
1575976195.2,286047002.1,N
1575976215.9,286047004.0,P
1575976235.7,286047001.5,N
1575976255.6,286047002.3,N
1575976275.4,286047001.4,N
1575976295.3,286047004.0,Y
1575976315.1,286047000.1,P
1575976316.0,286047000.1,N
1575976335.8,286047000.5,N
1575976355.7,286047000.9,N
1575976375.5,286046998.3,N
1575976395.3,286046998.4,N
1575976415.2,286046995.1,Y
1575976435.0,286046996.8,P
1575976435.9,286046996.8,N
1575976455.8,286046997.1,N
1575976475.6,286046996.9,N
1575976495.4,286046997.5,N
1575976515.3,286046995.9,Y
1575976535.1,286046996.9,P
1575976555.9,286047000.1,N
1575976575.7,286047000.9,N
1575976595.5,286046998.2,N
1575976615.4,286046997.3,N
1575976635.2,286046996.0,N
1575976655.0,286046994.1,Y
1575976655.9,286046994.1,P
1575976675.8,286046995.1,N
1575976695.6,286046995.5,N
1575976715.5,286046995.9,N
1575976735.3,286046996.2,N
1575976755.1,286046995.8,Y
1575976775.9,286046999.2,P
1575976795.7,286046998.7,N
1575976815.5,286047000.7,N
1575976835.4,286046999.7,N
1575976855.2,286047000.4,N
1575976875.1,286047000.2,N
1575976876.0,286047000.2,N
1575976895.8,286047000.3,N
1575976915.6,286046998.6,N
1575976935.5,286046998.4,N
1575976955.3,286046998.1,N
1575976975.2,286047001.0,N
1575976995.9,286046999.7,N
1575977015.7,286046998.6,N
1575977035.6,286047002.6,N
1575977055.4,286047002.4,N
1575977075.2,286047002.2,N
1575977095.1,286047004.1,N
1575977096.0,286047004.1,N
1575977115.8,286047001.4,N
1575977135.7,286047002.0,N
1575977155.5,286047001.6,N
1575977175.3,286047000.0,N
1575977195.2,286046998.1,N
1575977215.0,286046998.6,N
1575977215.9,286046998.6,N
1575977235.7,286047000.2,N
1575977255.6,286046999.7,N
1575977275.4,286047002.4,N
1575977295.3,286047002.2,N
1575977315.1,286047002.2,N
1575977316.0,286047002.2,N
1575977335.8,286047002.5,N
1575977355.7,286047001.6,N
1575977375.5,286047004.2,N
1575977395.3,286047003.7,N
1575977415.2,286047001.6,N
1575977435.0,286047001.8,N
1575977435.9,286047001.8,N
1575977455.8,286047003.4,N
1575977475.6,286047002.9,N
1575977495.4,286047006.4,Y
1575977515.3,286047006.3,P
1575977535.1,286047007.1,N
1575977555.9,286047006.0,N
1575977575.7,286047003.7,N
1575977595.5,286047003.8,N
1575977615.4,286047003.7,N
1575977635.2,286047001.9,N
1575977655.0,286047001.8,N
1575977655.9,286047001.8,N
1575977675.8,286046999.7,N
1575977695.6,286046998.2,N
1575977715.5,286046999.0,N
1575977735.3,286046998.7,N
1575977755.1,286047000.6,N
1575977775.9,286047000.7,N
1575977795.7,286047001.0,N
1575977815.5,286047002.3,N
1575977835.4,286047002.2,N
1575977855.2,286047004.2,N
1575977875.1,286047001.5,N
1575977876.0,286047001.5,N
1575977895.8,286047004.0,N
1575977915.6,286047005.8,N
1575977935.5,286047004.8,N
1575977955.3,286047003.6,N
1575977975.1,286047005.5,N
1575977995.9,286047005.1,N
1575978015.7,286047004.7,N
1575978035.6,286047004.7,N
1575978055.4,286047004.6,N
1575978075.2,286047007.0,N
1575978095.1,286047005.9,N
1575978096.0,286047005.9,N
1575978115.8,286047003.2,N
1575978135.6,286047005.5,N
1575978155.5,286047005.8,N
1575978175.3,286047002.9,N
1575978195.2,286047008.7,Y
1575978215.9,286047001.8,P
1575978235.7,286047000.8,N
1575978255.6,286047000.9,N
1575978275.4,286046998.2,N
1575978295.2,286046996.5,N
1575978315.1,286046996.5,N
1575978316.0,286046996.5,N
1575978335.8,286046999.1,N
1575978355.7,286046998.7,N
1575978375.5,286046998.1,N
1575978395.3,286046998.2,N
1575978415.2,286047000.2,N
1575978435.0,286047000.9,N
1575978435.9,286047000.9,N
1575978455.8,286047001.2,N
1575978475.6,286046998.5,N
1575978495.4,286046998.3,N
1575978515.3,286046999.6,N
1575978535.1,286046999.4,N
1575978555.8,286047000.5,N
1575978575.7,286046998.1,N
1575978595.5,286046998.7,N
1575978615.4,286046999.1,N
1575978635.2,286046998.7,N
1575978655.0,286047001.2,N
1575978655.9,286047001.2,N
1575978675.8,286046998.1,N
1575978695.6,286047000.8,N
1575978715.4,286046998.6,N
1575978735.3,286046998.2,N
1575978755.1,286046997.4,N
1575978775.9,286046996.1,N
1575978795.7,286046993.9,Y
1575978815.5,286046993.4,P
1575978835.4,286046993.3,N
1575978855.2,286046996.4,N
1575978875.1,286046992.4,Y
1575978876.0,286046992.4,P
1575978895.8,286046999.0,N
1575978915.6,286046997.0,N
1575978935.5,286047001.0,N
1575978955.3,286046999.9,N
1575978975.1,286047002.8,N
1575978995.9,286047000.6,N
1575979015.7,286047001.1,N
1575979035.6,286047000.7,N
1575979055.4,286046999.0,N
1575979075.2,286046996.8,N
1575979095.1,286046999.2,N
1575979096.0,286046999.2,N
1575979115.8,286046996.8,N
1575979135.7,286046998.7,N
1575979155.5,286047001.1,N
1575979175.3,286046999.9,N
1575979195.2,286047000.2,N
